Showing default

MISR-C-1, 68628

Orbit data source: Space-Track

MISR-C-1, 68628 is a payload satellite owned by SOCOM (US) in LEO that was launched on Tue, 07 Apr 2026 UTC via an MINOTAUR IV launch vehicle from the Air Force Western Test Range (AFWTR). Payload-class satellites include a variety of spacecraft equipped with specific instruments for various scientific and technological missions. These include communications satellites like Starlink; space stations such as the ISS; scientific satellites like the Hubble; Earth observation satellites from companies like Planet Labs, Umbra, and HawkEye 360; GPS; miniature CubeSats for education and research; and military/defense satellites.

Loading next visibility...
Identifier
68628, 2026-074B
Orbit
LEO
Country
Flag of USUS
Related business
Manufacturer
LANL?
Mission
Operational spacecraft
Bus & Motor
CUBESAT 16U, Unknown motor
Mass
~20 kg wet, ~20 kg dry
Launch date (UTC)
2026-04-07 (1 month ago)
Launch vehicle
MINOTAUR IV
Launch site
Air Force Western Test Range (AFWTR)
Object type
Payload
Rocket body
Debris
Shape & HBR
Unknown shape, 14.5 m
Radar Cross Section
RCS unknown

Expand to show TLE details & history
Last TLE update: 12 hours ago

TLE from 12 hours ago
0 MISR-C-1
1 68628U 26074B   26140.44245092  .00005318  00000-0  22923-3 0  9990
2 68628  60.0235 284.7776 0020954 355.6985   4.3912 15.23833382  6542
Epoch: 2026-05-20T10:37Z
TLE epoch observation values (Epoch: 2026-05-20T10:37:07.759Z)
Latitude
-0°
Longitude
-112.60668°
Altitude
481.533 km
Speed
7.633 km/s
True Right ascension
18h 59m 06s
True Declination
0° 00' 00"
Sunlit
Object was in full shadow at epoch
Visualization orbit readout
Latitude
Unknown
Longitude
Unknown
Altitude
Unknown
Speed
Unknown
Apparent Right ascension
Unknown
Apparent Declination
Unknown
Sunlit
N/A
Visualization observer readout
Local Sidereal Time
07:51:40
Azimuth
Unknown
Elevation
Unknown
Doppler factor
Unknown
Orbital elements
Apogee altitude
507.889 km
Perigee altitude
479.092 km
Semi-major axis
6,871.628 km
Eccentricity
0.0021
Inclination
60.0235°
RAAN
284.7776°
Arg. of periapsis
355.6985°
True anomaly
4.40963°
Mean anomaly
4.3912°
Eccentric anomaly
4.40041°
Mean motion
3.81025 °/min
Orbital period
94.48 mins
BSTAR
0.00022923
Loading maneuver chart data...
Computing Atmospheric mass density...
Loading historical data...
Loading historical data...
Loading historical data...
Loading historical data...
Loading historical data...
Loading historical data...
Loading historical data...

Documentation

Showing up to 5 results
|